TimePDT,TemperatureF,Dew PointF,Humidity,Sea Level PressureIn,VisibilityMPH,Wind Direction,Wind SpeedMPH,Gust SpeedMPH,PrecipitationIn,Events,Conditions,WindDirDegrees,DateUTC
12:53 AM,44.1,36.0,73,29.86,10.0,South,11.5,-,N/A,,Clear,190,2014-03-30 07:53:00
1:53 AM,42.1,35.1,76,29.86,10.0,South,9.2,-,N/A,,Clear,180,2014-03-30 08:53:00
2:53 AM,43.0,35.1,74,29.87,10.0,SSE,8.1,-,N/A,,Partly Cloudy,160,2014-03-30 09:53:00
3:53 AM,43.0,35.1,74,29.87,10.0,South,11.5,-,N/A,,Scattered Clouds,190,2014-03-30 10:53:00
4:53 AM,42.1,35.1,76,29.88,10.0,South,11.5,-,N/A,,Clear,180,2014-03-30 11:53:00
5:53 AM,43.0,35.1,74,29.88,10.0,South,10.4,-,N/A,,Mostly Cloudy,190,2014-03-30 12:53:00
6:53 AM,41.0,34.0,76,29.91,10.0,South,10.4,-,N/A,,Clear,190,2014-03-30 13:53:00
7:53 AM,44.1,35.1,71,29.92,10.0,South,8.1,-,N/A,,Overcast,190,2014-03-30 14:53:00
8:53 AM,46.0,34.0,63,29.93,10.0,SSW,11.5,-,N/A,,Mostly Cloudy,210,2014-03-30 15:53:00
9:53 AM,46.9,35.1,63,29.94,10.0,South,13.8,-,N/A,,Overcast,190,2014-03-30 16:53:00
10:53 AM,48.0,36.0,63,29.94,10.0,SW,12.7,-,0.00,,Overcast,220,2014-03-30 17:53:00
11:53 AM,50.0,37.0,61,29.94,10.0,South,6.9,-,0.00,,Overcast,180,2014-03-30 18:53:00
12:53 PM,52.0,34.0,50,29.93,10.0,WSW,11.5,-,N/A,,Overcast,240,2014-03-30 19:53:00
1:53 PM,55.0,33.1,43,29.92,10.0,West,19.6,23.0,N/A,,Partly Cloudy,260,2014-03-30 20:53:00
2:53 PM,55.9,28.9,36,29.91,10.0,SW,18.4,-,N/A,,Partly Cloudy,230,2014-03-30 21:53:00
3:53 PM,55.9,24.1,29,29.91,10.0,WSW,16.1,23.0,N/A,,Partly Cloudy,250,2014-03-30 22:53:00
4:53 PM,55.0,21.9,28,29.92,10.0,WSW,15.0,-,N/A,,Clear,240,2014-03-30 23:53:00
5:53 PM,54.0,25.0,33,29.93,10.0,SW,11.5,-,N/A,,Clear,230,2014-03-31 00:53:00
6:53 PM,51.1,27.0,39,29.94,10.0,SW,8.1,-,N/A,,Clear,230,2014-03-31 01:53:00
7:53 PM,46.9,30.9,54,29.96,10.0,South,6.9,-,N/A,,Clear,170,2014-03-31 02:53:00
8:53 PM,46.0,30.0,54,29.97,10.0,South,9.2,-,N/A,,Clear,170,2014-03-31 03:53:00
9:53 PM,46.0,30.0,54,29.98,10.0,SSE,10.4,-,N/A,,Clear,160,2014-03-31 04:53:00
10:53 PM,46.0,30.0,54,29.99,10.0,South,9.2,-,N/A,,Clear,170,2014-03-31 05:53:00
11:53 PM,46.0,30.9,56,30.00,10.0,South,6.9,-,N/A,,Clear,170,2014-03-31 06:53:00